Location: *
(51.4660°N, 0.3360°W)
Time: 19:28:09
(UTC+00:00)

GENESIS II - Pass Details

Date: 19 September 2019
Orbit: 479 x 550 km, 64.5° (Epoch: 22 October)

Event Time Altitude Azimuth Distance (km) Brightness Sun altitude
Rises 19:17:42 0° 318° (NW) 2,732 9.0 -11.6°
Reaches altitude 10° 19:19:57 10° 322° (NW) 1,836 7.9 -11.9°
Maximum altitude 19:24:03 63° 44° (NE) 617 4.4 -12.5°
Enters shadow 19:26:45 20° 122° (ESE) 1,292 5.6 -12.9°
